Погода в Ряжске

Погода в Ряжске : погода сейчас, прогноз погоды и архив. Всё, что Вы хотите узнать о погоде в Ряжске!

Хотите узнать прогноз погоды в Ряжске? Тогда Вам сюда: Погода в Ряжске

Поиск расширенной информации на нашем сайте:

Другие новости

Новости СМИ2

Главная страница сайта

Новости сайта

03.07.2017

Напоминаем, что на нашем специализированном сайте Метеоцентр.Азия вы можете получить высокодетализированные автоматические прогнозы погоды по пунктам России, СНГ и мира в авиационном формате (включающие направление и скорость ветра, видимость, явления погоды, количество и форму облачности, нижнюю и верхнюю границу облачности).


Погода в Ряжске - сегодня

Время (UTC), дата Ветер
(°,м/с) 
Видим.   Явления Облачность Т
(°С)
Тd
(°С)
f(%) Тe
(°С)
Pmin
(гПа)
dP
(гПа)
Po
(мм)
O2
(г/м3)
Тmin Tmax R s Состояние
почвы
06 16.04.18 270 (З) 10 км    ясно 
+10.5 +0.8 51 +12  1020.4  754  292           
09 16.04.18 320 (СЗ) 20000 м    ясно 
+18.3 -0.3 28 +19  1019.4  -0.5  753  284           
12 16.04.18 300 (СЗ) 20000 м    9/3 1000 м верхняя 
[Cu hum|Ci sp]
+19.6 -1.6 24 +20  1018.1  -1.2  752  283           
18 16.04.18 160 (Ю) н/о    10/0 средняя 
[Ac As]
+12.6 +2 48 +14  1017.5  0.2  752  289           
00 17.04.18 170 (Ю) н/о    10/0 средняя 
[Ac As]
+8.9 +4.9 76 +10  1016.8  -0.1  751  292           
03 17.04.18 060 (СВ) 4000 м  слаб. ливневой дождь  10/6 600 м кучево-дожд., средняя 
[Cb calv|Ac As]
+11.2 +8.5 83 +11  1016.6  -0.1  751  289  +8.2    0.6     
06 17.04.18 020 (С) 10 км  {ливн. осадки}  10/6 600 м кучево-дожд., средняя 
[Cb calv|Ac As]
+11.5 +9 85 +13  1017.2  0.7  751  289           
09 17.04.18 020 (С) 10 км    6/0 средняя 
[Ac trans]
+19 +8.4 50 +20  1016.2  -0.6  751  281           
12 17.04.18 360 (С) 10 км    10/0 средняя 
[Ac As]
+20.5 +7.2 42 +21  1015.7  -0.4  751  280           
18 17.04.18 110 (В) н/о    10/0 средняя 
[Ac As]
+12.3 +8 75 +14  1015.4  0.1  750  288           
21 17.04.18 тихо ()   н/о    10/0 средняя 
[Ac As]
+11.1 +7.9 81 +11  1014.9  -0.5  750  289           
00 18.04.18 170 (Ю) н/о    10/0 средняя 
[Ac As]
+10.9 +7.1 77 +12  1013.8  -1  749  289           
03 18.04.18 190 (Ю) 10 км    10/10 600 м 
[Sc]
+9.6 +5.3 75 +11  1012.6  -1.3  748  290  +9.6         
09 18.04.18 210 (ЮЗ) 10 км  слаб. дождь  10/10 1000 м 
[Frnb|Ns]
+10.1 +7.9 86 +10  1009.9  -0.9  746  288           
18 18.04.18 290 (З) 4000 м  слаб. дождь  10/10 300 м 
[Frnb]
+6.8 +5.7 93 +5  1006.6  -0.5  743  291           
21 18.04.18 270 (З) 4000 м  слаб. дождь  10/10 300 м 
[Frnb|Ns]
+6.4 +5.4 93 +5  1004.5  -2.2  742  291           
03 19.04.18 310 (СЗ) 4000 м  слаб. дождь  10/10 300 м 
[Frnb|Ns]
+6.5 +6.1 97 +6  998.7  -2.9  738  289  +5.8    15     
06 19.04.18 340 (С) 4000 м  слаб. дождь  10/10 300 м 
[Frnb|Ns]
+7.5 +6.9 96 +7  997.2  -1.5  736  288           
09 19.04.18 360 (С) 4000 м  слаб. ливневой дождь  10/10 600 м кучево-дожд. 
[Cb cap]
+7 +6.1 94 +6  997.2  736  288           
18 19.04.18 360 (С) 4000 м  дымка{дождь}  10/10 300 м 
[St]
+6.2 +5.5 95 +5  1003  2.2  741  291           
21 19.04.18 010 (С) 4000 м  слаб. дождь  10/10 300 м 
[Frnb|Ns]
+6.5 +5.7 95 +6  1003.6  0.5  741  291           
03 20.04.18 360 (С) 4000 м  дымка{дождь}  4/3 600 м средняя 
[Sc|Ac trans]
+5.4 +3.8 89 +4  1006.3  1.9  743  293  +5.4      затоплена
водой 
09 20.04.18 020 (С) 7-13{13}  10 км    ясно 
+12.5 -1.3 38 +11  1009.7  1.7  746  288           
18 20.04.18 310 (СЗ) н/о    4/0 верхняя 
[Ci sp]
+8 +0.6 59 +9  1012.3  1.1  748  293           
21 20.04.18 тихо ()   н/о    4/0 верхняя 
[Ci sp]
+5 +2 81 +5  1012.2  -0.3  747  295           
Время (UTC), дата Ветер
(°,м/с) 
Видим.   Явления Облачность Т
(°С)
Тd
(°С)
f(%) Тe
(°С)
Pmin
(гПа)
dP
(гПа)
Po
(мм)
O2
(г/м3)
Тmin Tmax R s Состояние
почвы

Для получения пояснительной информации подведите курсор к названию столбца.

ПОГОДА в Ряжске - архив

Всё, что Вы хотите узнать о погоде в Ряжске - удобно и подробно!

Выберите нужную дату (начиная с 1 января 2015* года) и нажмите кнопку "Найти".
Будут отображены архивные сводки погоды по пункту Ряжск, начиная с указанной даты.


Отображать данные в формате CSV (для использования в таблицах Excel)


Внимание! Наш архив погоды предназначен исключительно для личного некоммерческого использования в познавательных целях. Если Вам необходимы официальные справки о состоянии погоды (для производственных, юридических, коммерческих и т.п. целей), обращайтесь в органы Росгидромета.

*Примечание: данная дата относится к архиву по метеостанциям СССР (Россия, СНГ, Балтия).
Архив по метеостанциям Зарубежной Европы и Азии (кроме Китая) хранится 10 дней, по другим регионам земного шара (Китай, Африка, Америка, Австралия, Океания) - 1 день.

Ряжск - район местоположения метеостанции


Название, широта, долгота, высота метеостанции:
Ряжск 53.7°ш. 40.1°д. 127 м над ур. моря [Российская Федерация]

Дополнительная информация

В oтличие oт бoльшинства пoгoдных сайтoв мы публикуем пoдрoбную метеoинфoрмацию в детальнoм прoфессиoнальнoм фoрмате.

Характеристики температуры и влажнoсти вoздуха измеряются на высoте 2 м в тени вдали oт зданий и деревьев.
Скoрoсть ветра измеряется на высoте 10 м (на урoвне рoста челoвека скoрoсть ветра ниже в 1.5-2 раза). Если метеoстанция нахoдится в гoрoде или в лесу, тo скoрoсть ветра занижена на 2-4 м/с пo сравнению с oткрытым местoм. Скoрoсть ветра над акватoриями крупных рек и oзёр, а также на вершинах хoлмoв на 2-5 м/с выше, чем в oбычных услoвиях.
Атмoсфернoе давление в разных тoчках местнoсти мoжет значительнo oтличаться oт давления на метеoстанции, в зависимoсти oт услoвий рельефа (при пoдъёме на 10 м давление пoнижается примернo на 1 мм рт.ст.).